Vancouver, WA
on Wednesday, December 19, 2012

Wednesday
Previous Day Next Day
Daily Summary
 ActualAverageRecord
Temperature
Mean Temperature °F 40°F  
Max Temperature 51°F 46°F 60°F (1950)
Min Temperature 37°F 34°F 3°F (1924)
Degree Days
Heating Degree Days 21    
Month to date heating degree days 388  
Since 1 July heating degree days 1210  
Cooling Degree Days 0    
Month to date cooling degree days 0  
Year to date cooling degree days 398  
Moisture
Dew Point 36°F   
Average Humidity 73    
Maximum Humidity 92    
Minimum Humidity 54    
Precipitation
Precipitation 0.57 in 0.24 in 2.25 in (1941)
Month to date precipitation 5.11 4.03  
Year to date precipitation 43.43 36.40  
Snow
Snow 0.00 in in in ()
Month to date snowfall 0.0  
Since 1 July snowfall 0.0  
Snow Depth 0.00 in   
Wind
Wind Speed 9 mph   
Max Wind Speed 18 mph   
Max Gust Speed 28 mph   
Visibility 9 miles   
Events Rain   

Key: T is trace of precipitation, MM is missing value
Source: NWS Daily Summary
Time(PST)TemperatureDew PointHumidity Pressure Visibility Wind DirectionWind SpeedGust SpeedPrecipitationEvents Conditions
12:53 AM 37.9°F 33.1°F 83% 30.04 in 10.0 miles SE 4.6 mph - 0.00 in   Overcast
1:53 AM 37.9°F 32.0°F 79% 30.02 in 10.0 miles SE 5.8 mph - 0.00 in Rain Light Rain
2:18 AM 37.4°F 33.8°F 87% 30.01 in 10.0 miles SSE 9.2 mph - 0.01 in Rain Light Rain
2:53 AM 37.9°F 34.0°F 86% 29.99 in 9.0 miles ESE 9.2 mph - 0.02 in Rain Light Rain
3:53 AM 37.9°F 34.0°F 86% 29.97 in 10.0 miles ESE 8.1 mph - 0.01 in Rain Light Rain
4:53 AM 37.9°F 34.0°F 86% 29.95 in 10.0 miles SE 9.2 mph - 0.00 in Rain Light Rain
5:53 AM 37.9°F 34.0°F 86% 29.92 in 10.0 miles ESE 11.5 mph - 0.00 in   Overcast
6:02 AM 37.4°F 33.8°F 87% 29.92 in 10.0 miles ESE 11.5 mph - N/A   Overcast
6:53 AM 39.0°F 34.0°F 82% 29.91 in 10.0 miles ESE 9.2 mph - 0.00 in   Overcast
7:32 AM 39.2°F 33.8°F 81% 29.90 in 10.0 miles SSE 5.8 mph - 0.01 in Rain Light Rain
7:53 AM 37.9°F 34.0°F 86% 29.90 in 10.0 miles ESE 8.1 mph - 0.01 in Rain Light Rain
8:53 AM 37.9°F 35.1°F 89% 29.88 in 10.0 miles ESE 11.5 mph 19.6 mph 0.03 in Rain Light Rain
9:53 AM 37.9°F 35.1°F 89% 29.88 in 8.0 miles SE 8.1 mph - 0.02 in Rain Light Rain
10:53 AM 39.0°F 36.0°F 89% 29.85 in 6.0 miles ESE 8.1 mph - 0.03 in Rain Light Rain
11:37 AM 39.2°F 35.6°F 87% 29.83 in 10.0 miles ESE 9.2 mph - 0.00 in   Overcast
11:53 AM 39.0°F 36.0°F 89% 29.83 in 10.0 miles SE 9.2 mph - 0.00 in   Overcast
12:53 PM 39.9°F 37.0°F 89% 29.79 in 10.0 miles ESE 10.4 mph - 0.01 in Rain Light Rain
1:53 PM 41.0°F 37.0°F 86% 29.76 in 10.0 miles SE 8.1 mph 18.4 mph 0.00 in   Overcast
2:53 PM 44.1°F 36.0°F 73% 29.73 in 9.0 miles SE 10.4 mph 20.7 mph 0.01 in Rain Light Rain
3:53 PM 50.0°F 36.0°F 59% 29.72 in 10.0 miles South 11.5 mph 21.9 mph 0.00 in Rain Light Rain
4:53 PM 51.1°F 36.0°F 56% 29.70 in 10.0 miles South 13.8 mph 23.0 mph 0.01 in Rain Light Rain
5:53 PM 50.0°F 37.9°F 63% 29.71 in 8.0 miles SSW 11.5 mph 24.2 mph 0.02 in Rain Light Rain
6:53 PM 46.9°F 39.0°F 74% 29.72 in 9.0 miles SSW 10.4 mph 21.9 mph 0.09 in Rain Light Rain
7:53 PM 43.0°F 39.9°F 89% 29.70 in 6.0 miles SE 6.9 mph - 0.07 in Rain Rain
8:53 PM 41.0°F 37.9°F 89% 29.67 in 9.0 miles ESE 10.4 mph 18.4 mph 0.08 in Rain Light Rain
9:53 PM 41.0°F 37.9°F 89% 29.65 in 8.0 miles ESE 8.1 mph - 0.04 in Rain Light Rain
10:53 PM 42.1°F 39.0°F 89% 29.64 in 8.0 miles ESE 9.2 mph - 0.07 in Rain Light Rain
11:53 PM 43.0°F 39.0°F 86% 29.62 in 9.0 miles ESE 11.5 mph - 0.05 in Rain Light Rain
Moon Phase
Dec. 19 Dec. 20 Dec. 28 Jan. 04 Jan. 11
Sunrise:07:47 AM (PST) Moon Rise:11:38 AM (PST)12/19
Sunset:04:28 PM (PST) Moon Set:No Moon Set/

Copyright © 2014 The Weather Underground, Inc.